Miscellaneous Local Product
Issued by NWS North Platte, NE

Home | Current Version | Previous Version | Text Only | Print | Product List | Glossary On
Versions: 1 2 3 4 5 6 7 8 9 10 11 12 13 14 15 16 17 18 19 20 21 22 23 24 25 26 27 28 29 30 31 32 33 34 35 36 37 38 39 40 41 42 43 44 45 46 47 48 49 50
000
AXUS43 KLBF 260910
MISLBF


WESTERN AND NORTH CENTRAL NEBRASKA HOURLY WEATHER ROUNDUP
NATIONAL WEATHER SERVICE NORTH PLATTE NE
300 AM CST THU FEB 26 2015

***STATIONS NOT REPORTING VARIABLES SUCH AS SKY/WEATHER OR
PRESSURE ARE PROVIDED BY THE NEBRASKA DEPARTMENT OF
ROADS...RAWS...AND APRS NETWORKS...AND ARE NOT UNDER
NATIONAL WEATHER SERVICE QUALITY CONTROL***

...OBSERVATIONS IN AND NEAR THE EASTERN PANHANDLE OF NEBRASKA...

CITY           SKY/WX    TMP DP  RH WIND       PRES   REMARKS
PINE RIDGE     LGT SNOW   8   3  80 NW3       30.33S
CHADRON        LGT SNOW  11   6  81 NE5       30.34S WCI   3
ALLIANCE       CLOUDY    11   5  77 N10       30.26S WCI  -3
SIDNEY         CLOUDY    12   5  73 N13       30.24R WCI  -3
WHITECLAY        N/A      9   3  78 NW6         N/A  WCI  -1
CRESCENT LAKE    N/A     10  -1  61 N10G20      N/A  WCI  -4
LISCO            N/A     17   4  57 W10         N/A  WCI   4
BIG SPRINGS      N/A     16   6  64 N6          N/A  WCI   8
LEWELLEN         N/A     30  18  59 N13         N/A  WCI  20
$$

...OBSERVATIONS IN NORTH CENTRAL NEBRASKA...

CITY           SKY/WX    TMP DP  RH WIND       PRES   REMARKS
VALENTINE      MOCLDY     4  -2  76 N12       30.38S WCI -12
THEDFORD       CLOUDY     9   5  82 N16       30.33R WCI  -8
AINSWORTH      CLOUDY     5   1  83 N8        30.36S WCI  -8
O`NEILL        PTCLDY     1  -5  78 N13       30.40R WCI -17
ORD            PTCLDY     6  -3  66 N20       30.37R WCI -14
BROKEN BOW     CLEAR      7  -1  70 N21       30.33S WCI -13
BROWNLEE         N/A      4  -1  81 W16         N/A  WCI -15
SPRINGVIEW       N/A      4  -1  77 NE3         N/A
BREWSTER         N/A      9   4  78 N9          N/A  WCI  -4
ROSE             N/A     11   8  87 N12         N/A  WCI  -4
NEWPORT          N/A      9   5  84 W7          N/A  WCI  -2
SARGENT          N/A      6   0  76 MISG        N/A
COMSTOCK         N/A     30  19  64 E14         N/A  WCI  20
CHAMBERS         N/A      2  -6  67 N10         N/A  WCI -14
EWING            N/A      0  -4  80 N10         N/A  WCI -16
$$

...OBSERVATIONS IN SOUTHWEST NEBRASKA AND FAR NORTHEAST COLORADO...

CITY           SKY/WX    TMP DP  RH WIND       PRES   REMARKS
WRAY           CLOUDY    17   8  66 N10G17    30.27R WCI   5
IMPERIAL         N/A     16   5  62 NE17      30.28S WCI   0
OGALLALA       CLOUDY    15   7  72 N13       30.30R WCI   0
NORTH PLATTE   CLOUDY     9   1  70 N6        30.33R WCI  -1
MCCOOK         CLOUDY    17   4  56 N15G25    30.32R WCI   2
LEXINGTON      MOCLDY    11   3  71 N14       30.35R WCI  -5
PAXTON           N/A     14   7  73 N10         N/A  WCI   1
BRADY            N/A     10   2  69 CALM        N/A
GOTHENBURG       N/A      9   1  68 NW10        N/A  WCI  -5
CALLAWAY         N/A      7   2  78 N12         N/A  WCI  -8
$$

...NORTH PLATTE AREA...

CITY           SKY/WX    TMP DP  RH WIND       PRES   REMARKS
AIRPORT        CLOUDY     9   1  70 N6        30.33R WCI  -1
DOWNTOWN         N/A      9   2  72 N6          N/A  WCI  -1
$$

...SOME WEATHER OBSERVATIONS FROM AROUND THE REGION...

CITY           SKY/WX    TMP DP  RH WIND       PRES   REMARKS
DENVER         FLURRIES  15   9  76 NE8       30.17F WCI   4
LARAMIE        CLOUDY     7   4  87 W5        30.03S WCI  -2
CHEYENNE       CLOUDY     9   4  80 NE7       30.10R WCI  -2
SCOTTSBLUFF    CLOUDY    14   6  70 N8        30.27S WCI   3
RAPID CITY     CLOUDY     4   1  88 N8        30.35R WCI  -9
PIERRE         CLEAR     -2  -8  76 NW10      30.48R WCI -19
WINNER         CLOUDY     2  -6  69 N9        30.44R WCI -13
SIOUX FALLS    CLEAR     -4 -10  75 NW14      30.38R WCI -24
OMAHA          PTCLDY     4  -3  73 N24G36    30.35R WCI -19
GRAND ISLAND   PTCLDY     7  -1  70 N20       30.37R WCI -13
KANSAS CITY    FRZ DRZL  13   7  77 N28G33    30.20R WCI  -8
WICHITA        FLURRIES  19   9  65 N21G32    30.22R WCI   3
HAYS           CLEAR     16   0  48 N15       30.30S WCI   1
LIBERAL        PTCLDY    21  12  68 N18G24    30.22R WCI   6
GOODLAND       CLOUDY    16   8  71 N18G25    30.25R WCI   0
$$



USA.gov is the U.S. government's official web portal to all federal, state and local government web resources and services.